Marshall, TX

5:44 AM CDT on October 21, 2019 (GMT -0500)
Harrison County

Weather History for KASL - August, 2019

Change the Weather History Date:

Friday, August 30, 2019

  Actual Average (KGGG) Record (KGGG)
Temperature  
Mean Temperature 83 °F -  
Max Temperature 95 °F 90 °F 105 °F (2000)
Min Temperature 71 °F 69 °F 56 °F (1992)
Cooling Degree Days 18    
Growing Degree Days 33 (Base 50)    
Moisture  
Dew Point 71 °F    
Average Humidity 75    
Maximum Humidity 93    
Minimum Humidity 43    
Precipitation  
Precipitation 1.30 in - - ()
Sea Level Pressure  
Sea Level Pressure 30.04 in    
Wind  
Wind Speed - (North)    
Max Wind Speed -    
Max Gust Speed -    
Visibility 9 miles    
Events      
Averages and records for this station are not official NWS values.
T = Trace of Precipitation, MM = Missing Value Source: NWS Daily Summary

Daily Weather History Graph

Daily Weather History Graph

Search for Another Location

Airport or City:

Astronomy

Aug. 30, 2019 Rise Set
Actual Time 6:50 AM CDT 7:44 PM CDT
Civil Twilight 6:25 AM CDT 8:09 PM CDT
Nautical Twilight 5:55 AM CDT 8:39 PM CDT
Astronomical Twilight 5:25 AM CDT 9:09 PM CDT
Moon 6:55 AM CDT (8/30) 8:21 PM CDT (8/30)
Length of Visible Light 13h 44m
Length of Day
12h 53m
New Moon, 0% of the Moon is Illuminated
Aug 30
New Moon
Sep 5
First Quarter
Sep 13
Full
Sep 21
Last Quarter
Sep 28
New

Hourly Weather History & Observations

Time (CDT) Temp. Heat Index Dew Point Humidity Pressure Visibility Wind Dir Wind Speed Gust Speed Precip Events Conditions
12:15 AM 77.7 °F - 70.9 °F 79% 30.04 in 10.0 mi North - - N/A   Clear
12:35 AM 77.5 °F - 70.7 °F 79% 30.04 in 10.0 mi North - - N/A   Clear
12:55 AM 77.4 °F - 70.9 °F 80% 30.05 in 10.0 mi North - - N/A   Clear
1:15 AM 77.4 °F - 71.2 °F 81% 30.05 in 10.0 mi North - - N/A   Clear
1:35 AM 76.3 °F - 70.7 °F 83% 30.04 in 10.0 mi North - - N/A   Clear
1:55 AM 76.1 °F - 71.4 °F 85% 30.04 in 10.0 mi North - - N/A   Clear
2:15 AM 75.7 °F - 71.2 °F 86% 30.03 in 10.0 mi North - - N/A   Clear
2:35 AM 75.2 °F - 70.7 °F 86% 30.03 in 10.0 mi North - - N/A   Clear
2:55 AM 75.2 °F - 70.7 °F 86% 30.03 in 10.0 mi North - - N/A   Clear
3:15 AM 75.2 °F - 71.2 °F 87% 30.03 in 10.0 mi North - - N/A   Clear
3:35 AM 73.2 °F - 70.0 °F 90% 30.03 in 10.0 mi North - - N/A   Clear
3:55 AM 72.5 °F - 69.4 °F 90% 30.03 in 10.0 mi North - - N/A   Clear
4:15 AM 72.5 °F - 70.0 °F 92% 30.04 in 10.0 mi North - - N/A   Clear
4:35 AM 72.5 °F - 70.0 °F 92% 30.05 in 10.0 mi North - - N/A   Clear
4:55 AM 72.5 °F - 70.2 °F 92% 30.06 in 10.0 mi North - - N/A   Clear
5:15 AM 72.5 °F - 70.2 °F 92% 30.06 in 10.0 mi North - - N/A   Clear
5:35 AM 72.5 °F - 70.2 °F 92% 30.07 in 10.0 mi North - - N/A   Clear
5:55 AM 72.5 °F - 70.2 °F 92% 30.08 in 10.0 mi North - - N/A   Clear
6:15 AM 72.5 °F - 70.2 °F 92% 30.08 in 10.0 mi North - - N/A   Clear
6:35 AM 71.8 °F - 69.6 °F 93% 30.08 in 7.0 mi North - - N/A   Clear
6:55 AM 71.4 °F - 69.3 °F 93% 30.08 in 4.0 mi North - - N/A   Clear
7:15 AM 72.5 °F - 70.2 °F 92% 30.08 in 5.0 mi North - - N/A   Clear
7:35 AM 72.5 °F - 70.3 °F 93% 30.07 in 10.0 mi North - - N/A   Clear
7:55 AM 73.2 °F - 70.9 °F 92% 30.08 in 10.0 mi North - - N/A   Clear
8:15 AM 75.2 °F - 71.6 °F 89% 30.08 in 10.0 mi North - - N/A   Clear
8:35 AM 77.4 °F - 72.7 °F 85% 30.07 in 10.0 mi North - - N/A   Clear
8:55 AM 78.8 °F - 72.5 °F 81% 30.08 in 10.0 mi North - - N/A   Clear
9:15 AM 82.4 °F 88.7 °F 74.1 °F 76% 30.09 in 10.0 mi North - - N/A   Clear
9:35 AM 85.1 °F 93.3 °F 74.7 °F 71% 30.09 in 10.0 mi North - - N/A   Clear
9:55 AM 85.1 °F 91.5 °F 72.7 °F 66% 30.09 in 10.0 mi North - - N/A   Clear
10:15 AM 85.1 °F 91.1 °F 72.3 °F 65% 30.09 in 10.0 mi North - - N/A   Clear
10:35 AM 85.1 °F 90.8 °F 71.8 °F 64% 30.09 in 10.0 mi North - - N/A   Clear
10:55 AM 86.0 °F 92.2 °F 72.1 °F 63% 30.09 in 10.0 mi North - - N/A   Clear
11:15 AM 87.4 °F 94.4 °F 72.7 °F 61% 30.09 in 10.0 mi North - - N/A   Clear
11:35 AM 87.4 °F 93.5 °F 71.6 °F 59% 30.09 in 10.0 mi North - - N/A   Scattered Clouds
11:55 AM 90.0 °F 97.4 °F 72.3 °F 56% 30.09 in 10.0 mi North - - N/A   Scattered Clouds
12:15 PM 90.0 °F 95.4 °F 70.3 °F 52% 30.07 in 10.0 mi North - - N/A   Mostly Cloudy
12:35 PM 92.5 °F 100.1 °F 71.8 °F 51% 30.06 in 10.0 mi North - - N/A   Overcast
12:55 PM 90.0 °F 95.9 °F 70.5 °F 53% 30.06 in 10.0 mi North - - N/A   Overcast
1:15 PM 90.0 °F 95.0 °F 69.8 °F 51% 30.05 in 10.0 mi North - - N/A   Mostly Cloudy
1:35 PM 92.5 °F 98.4 °F 70.0 °F 48% 30.04 in 10.0 mi North - - N/A   Mostly Cloudy
1:55 PM 93.7 °F 99.9 °F 69.8 °F 46% 30.04 in 10.0 mi North - - N/A   Mostly Cloudy
2:15 PM 93.2 °F 99.4 °F 70.0 °F 47% 30.04 in 10.0 mi North - - N/A   Mostly Cloudy
2:35 PM 92.5 °F 99.0 °F 70.5 °F 49% 30.03 in 10.0 mi North - - N/A   Scattered Clouds
2:55 PM 90.1 °F 95.3 °F 69.8 °F 51% 30.02 in 10.0 mi North - - N/A   Scattered Clouds
3:15 PM 92.5 °F 97.4 °F 69.1 °F 46% 30.02 in 10.0 mi North - - N/A   Clear
3:35 PM 95.0 °F 100.7 °F 69.3 °F 43% 30.01 in 10.0 mi North - - N/A   Scattered Clouds
3:55 PM 95.0 °F 101.9 °F 70.3 °F 45% 30.01 in 10.0 mi North - - N/A   Overcast
4:15 PM 92.5 °F 97.9 °F 69.8 °F 47% 30.01 in 10.0 mi North - - N/A   Overcast
4:35 PM 90.9 °F 95.3 °F 68.9 °F 48% 30.00 in 10.0 mi North - - N/A   Overcast
4:55 PM 90.0 °F 94.1 °F 68.4 °F 49% 29.99 in 10.0 mi North - - N/A   Mostly Cloudy
5:15 PM 90.0 °F 94.1 °F 68.4 °F 49% 29.99 in 10.0 mi North - - N/A   Overcast
5:35 PM 90.0 °F 95.4 °F 70.0 °F 52% 29.99 in 10.0 mi North - - N/A   Mostly Cloudy
5:55 PM 90.0 °F 96.4 °F 71.4 °F 54% 29.98 in 10.0 mi North - - N/A   Mostly Cloudy
6:15 PM 87.4 °F 93.1 °F 71.2 °F 58% 29.97 in 10.0 mi North - - N/A   Scattered Clouds
6:35 PM 87.4 °F 94.0 °F 72.1 °F 60% 29.98 in 10.0 mi North - - N/A   Overcast
6:55 PM 86.2 °F 92.2 °F 71.6 °F 62% 30.00 in 10.0 mi North - - N/A   Overcast
7:15 PM 75.6 °F - 68.5 °F 79% 30.06 in 4.0 mi North - - 0.10 in   Overcast
7:35 PM 72.5 °F - 69.4 °F 90% 30.07 in 0.5 mi North - - 0.98 in   Overcast
7:55 PM 72.5 °F - 69.6 °F 91% 30.05 in 1.5 mi North - - 1.17 in   Overcast
8:15 PM 71.2 °F - 68.9 °F 92% 30.00 in 2.0 mi North - - 0.11 in   Overcast
8:35 PM 71.2 °F - 68.9 °F 92% 30.00 in 10.0 mi North - - 0.12 in   Mostly Cloudy
8:55 PM 72.5 °F - 70.0 °F 92% 30.01 in 10.0 mi North - - 0.12 in   Mostly Cloudy
9:15 PM 72.5 °F - 70.0 °F 92% 30.01 in 10.0 mi North - - N/A   Scattered Clouds
9:35 PM 72.5 °F - 69.8 °F 91% 30.02 in 10.0 mi North - - N/A   Clear
9:55 PM 72.5 °F - 69.8 °F 91% 30.03 in 10.0 mi North - - 0.01 in   Clear
10:15 PM 72.5 °F - 69.8 °F 91% 30.04 in 10.0 mi North - - N/A   Clear
10:35 PM 72.5 °F - 69.8 °F 91% 30.04 in 10.0 mi North - - N/A   Clear
10:55 PM 72.5 °F - 70.0 °F 92% 30.04 in 10.0 mi North - - N/A   Clear
11:15 PM 72.5 °F - 69.8 °F 91% 30.04 in 10.0 mi North - - N/A   Clear
11:35 PM 72.5 °F - 70.2 °F 92% 30.05 in 7.0 mi North - - N/A   Clear
11:55 PM 72.5 °F - 70.3 °F 93% 30.05 in 7.0 mi North - - N/A   Clear